This is the latest recevied weather packets stored in our database for station/object M0UPS-13. If no packets are shown the sender has not sent any weather packets the latest 10 day(s).
| Time | Temp. | Humidity | Pressure | Rain* | Wind** | Luminosity | Snow |
|---|---|---|---|---|---|---|---|
| 1777478702 | 16.67° C | 35% | 1022.9 hPa | 0 mm | - | 336 W/m² | - |
| 1777478403 | 16.67° C | 34% | 1022.9 hPa | 0 mm | - | 325 W/m² | - |
| 1777478102 | 16.67° C | 36% | 1022.8 hPa | 0 mm | - | 346 W/m² | - |
| 1777477802 | 16.67° C | 34% | 1023.2 hPa | 0 mm | - | 391 W/m² | - |
| 1777477503 | 16.67° C | 35% | 1023.1 hPa | 0 mm | - | 408 W/m² | - |
| 1777477202 | 16.67° C | 35% | 1023 hPa | 0 mm | - | 428 W/m² | - |
| 1777476902 | 16.67° C | 36% | 1022.9 hPa | 0 mm | - | 438 W/m² | - |
| 1777476603 | 16.67° C | 36% | 1023.1 hPa | 0 mm | - | 451 W/m² | - |
| 1777476302 | 16.67° C | 37% | 1023.1 hPa | 0 mm | - | 463 W/m² | - |
| 1777476003 | 16.67° C | 36% | 1023.1 hPa | 0 mm | - | 469 W/m² | - |
| 1777475702 | 16.67° C | 37% | 1023.4 hPa | 0 mm | - | 483 W/m² | - |
| 1777475402 | 17.22° C | 36% | 1023.5 hPa | 0 mm | - | 509 W/m² | - |
| 1777475103 | 16.67° C | 37% | 1023.4 hPa | 0 mm | - | 528 W/m² | - |
| 1777474802 | 17.22° C | 35% | 1023.5 hPa | 0 mm | - | 527 W/m² | - |
| 1777474502 | 16.67° C | 37% | 1023.6 hPa | 0 mm | - | 536 W/m² | - |
| 1777474203 | 16.67° C | 37% | 1023.4 hPa | 0 mm | - | 511 W/m² | - |
| 1777473902 | 16.67° C | 35% | 1023.6 hPa | 0 mm | - | 538 W/m² | - |
| 1777473603 | 16.67° C | 36% | 1023.5 hPa | 0 mm | - | 557 W/m² | - |
| 1777473303 | 16.67° C | 38% | 1023.7 hPa | 0 mm | - | 565 W/m² | - |
| 1777473002 | 16.67° C | 37% | 1023.4 hPa | 0 mm | - | 590 W/m² | - |
| 1777472702 | 16.67° C | 37% | 1023.7 hPa | 0 mm | - | 580 W/m² | - |
| 1777472402 | 16.67° C | 36% | 1023.8 hPa | 0 mm | - | 586 W/m² | - |
| 1777472102 | 17.22° C | 36% | 1023.6 hPa | 0 mm | - | 588 W/m² | - |
| 1777471803 | 16.67° C | 38% | 1023.5 hPa | 0 mm | - | 600 W/m² | - |
| 1777471502 | 17.22° C | 36% | 1023.7 hPa | 0 mm | - | 607 W/m² | - |
* Rain latest hour (hover to see other rain measurements)
** Current wind speed in m/s (hover to see current wind gust speed)